Time,TemperatureF,DewpointF,PressureIn,WindDirection,WindDirectionDegrees,WindSpeedMPH,WindSpeedGustMPH,Humidity,HourlyPrecipIn,Conditions,Clouds,dailyrainin,SolarRadiationWatts/m^2,SoftwareType,DateUTC
2013-01-14 00:22:00,31.0,19.0,30.13,NNE,18,4.0,5.0,61,-99.99,,,0.00,0.000000,,2013-01-14 08:22:00,
2013-01-14 01:22:00,37.0,10.0,30.14,NNW,333,4.0,7.0,32,-99.99,,,0.00,0.000000,,2013-01-14 09:22:00,
2013-01-14 01:33:00,37.0,10.0,30.14,NNW,333,4.0,7.0,32,-99.99,,,0.00,0.000000,,2013-01-14 09:33:00,
2013-01-14 01:42:00,37.0,10.0,30.14,NNW,333,4.0,7.0,32,-99.99,,,0.00,0.000000,,2013-01-14 09:42:00,
2013-01-14 01:52:00,37.0,10.0,30.14,NNW,333,4.0,7.0,32,-99.99,,,0.00,0.000000,,2013-01-14 09:52:00,
2013-01-14 02:22:00,39.0,6.0,30.17,NW,321,5.0,9.0,25,0.00,,,0.00,0.000000,,2013-01-14 10:22:00,
2013-01-14 02:32:00,39.0,6.0,30.17,NW,321,5.0,9.0,25,0.00,,,0.00,0.000000,,2013-01-14 10:32:00,
2013-01-14 02:42:00,39.0,6.0,30.17,NW,321,5.0,9.0,25,0.00,,,0.00,0.000000,,2013-01-14 10:42:00,
2013-01-14 02:52:00,39.0,6.0,30.17,NW,321,5.0,9.0,25,0.00,,,0.00,0.000000,,2013-01-14 10:52:00,
2013-01-14 03:22:00,38.0,3.0,30.19,NW,312,6.0,11.0,22,0.00,,,-99.99,0.000000,,2013-01-14 11:22:00,
2013-01-14 03:32:00,38.0,3.0,30.19,NW,312,6.0,11.0,22,0.00,,,-99.99,0.000000,,2013-01-14 11:32:00,
2013-01-14 03:42:00,38.0,3.0,30.19,NW,312,6.0,11.0,22,0.00,,,-99.99,0.000000,,2013-01-14 11:42:00,
2013-01-14 03:53:00,38.0,3.0,30.19,NW,312,6.0,11.0,22,0.00,,,-99.99,0.000000,,2013-01-14 11:53:00,
2013-01-14 04:22:00,38.0,3.0,30.18,NW,317,11.0,17.0,22,0.00,,,0.00,0.000000,,2013-01-14 12:22:00,
2013-01-14 04:33:00,38.0,3.0,30.18,NW,317,11.0,17.0,22,0.00,,,0.00,0.000000,,2013-01-14 12:33:00,
2013-01-14 04:42:00,38.0,3.0,30.18,NW,317,11.0,17.0,22,0.00,,,0.00,0.000000,,2013-01-14 12:42:00,
2013-01-14 04:52:00,38.0,3.0,30.18,NW,317,11.0,17.0,22,0.00,,,0.00,0.000000,,2013-01-14 12:52:00,
2013-01-14 05:22:00,37.0,1.0,30.19,NNW,333,6.0,18.0,21,0.00,,,0.00,0.000000,,2013-01-14 13:22:00,
2013-01-14 05:33:00,37.0,1.0,30.19,NNW,333,6.0,18.0,21,0.00,,,0.00,0.000000,,2013-01-14 13:33:00,
2013-01-14 05:43:00,37.0,1.0,30.19,NNW,333,6.0,18.0,21,0.00,,,0.00,0.000000,,2013-01-14 13:43:00,
2013-01-14 05:52:00,37.0,1.0,30.19,NNW,333,6.0,18.0,21,0.00,,,0.00,0.000000,,2013-01-14 13:52:00,
2013-01-14 06:22:00,37.0,0.0,30.20,NNW,341,11.0,16.0,20,0.00,,,0.00,0.000000,,2013-01-14 14:22:00,
2013-01-14 06:33:00,37.0,0.0,30.20,NNW,341,11.0,16.0,20,0.00,,,0.00,0.000000,,2013-01-14 14:33:00,
2013-01-14 06:43:00,37.0,0.0,30.20,NNW,341,11.0,16.0,20,0.00,,,0.00,0.000000,,2013-01-14 14:43:00,
2013-01-14 06:52:00,37.0,0.0,30.20,NNW,341,11.0,16.0,20,0.00,,,0.00,0.000000,,2013-01-14 14:52:00,
2013-01-14 07:23:00,37.0,-1.0,30.23,NE,49,7.0,26.0,19,0.00,,,0.00,0.000000,,2013-01-14 15:23:00,
2013-01-14 07:33:00,37.0,-1.0,30.23,NE,49,7.0,26.0,19,0.00,,,0.00,0.000000,,2013-01-14 15:33:00,
2013-01-14 07:43:00,37.0,-1.0,30.23,NE,49,7.0,26.0,19,0.00,,,0.00,0.000000,,2013-01-14 15:43:00,
2013-01-14 07:53:00,37.0,-1.0,30.23,NE,49,7.0,26.0,19,0.00,,,0.00,0.000000,,2013-01-14 15:53:00,
2013-01-14 08:23:00,38.0,-2.0,30.26,West,270,3.0,21.0,18,0.00,,,0.00,12.000000,,2013-01-14 16:23:00,
2013-01-14 08:33:00,38.0,-2.0,30.26,West,270,3.0,21.0,18,0.00,,,0.00,12.000000,,2013-01-14 16:33:00,
2013-01-14 08:43:00,38.0,-2.0,30.26,West,270,3.0,21.0,18,0.00,,,0.00,12.000000,,2013-01-14 16:43:00,
2013-01-14 08:52:00,38.0,-2.0,30.26,West,270,3.0,21.0,18,0.00,,,0.00,12.000000,,2013-01-14 16:52:00,
2013-01-14 09:23:00,44.0,-2.0,30.28,NE,42,7.0,8.0,14,0.00,,,0.00,148.000000,,2013-01-14 17:23:00,
2013-01-14 09:33:00,44.0,-2.0,30.28,NE,42,7.0,8.0,14,0.00,,,0.00,148.000000,,2013-01-14 17:33:00,
2013-01-14 09:43:00,44.0,-2.0,30.28,NE,42,7.0,8.0,14,0.00,,,0.00,148.000000,,2013-01-14 17:43:00,
2013-01-14 09:53:00,44.0,-2.0,30.28,NE,42,7.0,8.0,14,0.00,,,0.00,148.000000,,2013-01-14 17:53:00,
2013-01-14 10:22:00,48.0,-4.0,30.28,NNE,26,13.0,22.0,11,0.00,,,0.00,403.000000,,2013-01-14 18:22:00,
2013-01-14 10:33:00,48.0,-4.0,30.28,NNE,26,13.0,22.0,11,0.00,,,0.00,403.000000,,2013-01-14 18:33:00,
2013-01-14 10:42:00,48.0,-4.0,30.28,NNE,26,13.0,22.0,11,0.00,,,0.00,403.000000,,2013-01-14 18:42:00,
2013-01-14 10:52:00,48.0,-4.0,30.28,NNE,26,13.0,22.0,11,0.00,,,0.00,403.000000,,2013-01-14 18:52:00,
2013-01-14 11:22:00,51.0,-4.0,30.26,North,11,10.0,21.0,10,0.00,,,0.00,537.000000,,2013-01-14 19:22:00,
2013-01-14 11:33:00,51.0,-4.0,30.26,North,11,10.0,21.0,10,0.00,,,0.00,537.000000,,2013-01-14 19:33:00,
2013-01-14 11:42:00,51.0,-4.0,30.26,North,11,10.0,21.0,10,0.00,,,0.00,537.000000,,2013-01-14 19:42:00,
2013-01-14 11:52:00,51.0,-4.0,30.26,North,11,10.0,21.0,10,0.00,,,0.00,537.000000,,2013-01-14 19:52:00,
2013-01-14 12:22:00,54.0,-4.0,30.23,NE,35,8.0,23.0,9,0.00,,,0.00,596.000000,,2013-01-14 20:22:00,
2013-01-14 12:33:00,54.0,-4.0,30.23,NE,35,8.0,23.0,9,0.00,,,0.00,596.000000,,2013-01-14 20:33:00,
2013-01-14 13:22:00,53.0,-4.0,30.23,NE,47,13.0,22.0,9,0.00,,,0.00,630.000000,,2013-01-14 21:22:00,
2013-01-14 13:33:00,53.0,-4.0,30.23,NE,47,13.0,22.0,9,0.00,,,0.00,630.000000,,2013-01-14 21:33:00,
2013-01-14 13:42:00,53.0,-4.0,30.23,NE,47,13.0,22.0,9,0.00,,,0.00,630.000000,,2013-01-14 21:42:00,
2013-01-14 13:53:00,53.0,-4.0,30.23,NE,47,13.0,22.0,9,0.00,,,0.00,630.000000,,2013-01-14 21:53:00,
2013-01-14 14:23:00,55.0,-5.0,30.23,NE,35,11.0,24.0,8,0.00,,,0.00,577.000000,,2013-01-14 22:23:00,
2013-01-14 14:32:00,55.0,-5.0,30.23,NE,35,11.0,24.0,8,0.00,,,0.00,577.000000,,2013-01-14 22:32:00,
2013-01-14 15:23:00,55.0,-3.0,30.24,ENE,61,10.0,22.0,9,0.00,,,0.00,470.000000,,2013-01-14 23:23:00,
2013-01-14 15:33:00,55.0,-3.0,30.24,ENE,61,10.0,22.0,9,0.00,,,0.00,470.000000,,2013-01-14 23:33:00,
2013-01-14 16:22:00,52.0,-5.0,30.25,ENE,59,11.0,22.0,9,0.00,,,0.00,247.000000,,2013-01-15 00:22:00,
2013-01-14 17:22:00,48.0,-6.0,30.26,NNE,18,9.0,27.0,10,0.00,,,0.00,18.000000,,2013-01-15 01:22:00,
2013-01-14 17:32:00,48.0,-6.0,30.26,NNE,18,9.0,27.0,10,0.00,,,0.00,18.000000,,2013-01-15 01:32:00,
2013-01-14 18:22:00,45.0,-5.0,30.27,NW,323,9.0,25.0,12,0.00,,,0.00,2.000000,,2013-01-15 02:22:00,
2013-01-14 18:32:00,45.0,-5.0,30.27,NW,323,9.0,25.0,12,0.00,,,0.00,2.000000,,2013-01-15 02:32:00,
2013-01-14 18:42:00,45.0,-5.0,30.27,NW,323,9.0,25.0,12,0.00,,,0.00,2.000000,,2013-01-15 02:42:00,
2013-01-14 18:52:00,45.0,-5.0,30.27,NW,323,9.0,25.0,12,0.00,,,0.00,2.000000,,2013-01-15 02:52:00,
2013-01-14 19:22:00,44.0,-4.0,30.28,NNE,12,7.0,22.0,13,0.00,,,0.00,0.000000,,2013-01-15 03:22:00,
2013-01-14 19:33:00,44.0,-4.0,30.28,NNE,12,7.0,22.0,13,0.00,,,0.00,0.000000,,2013-01-15 03:33:00,
2013-01-14 19:42:00,44.0,-4.0,30.28,NNE,12,7.0,22.0,13,0.00,,,0.00,0.000000,,2013-01-15 03:42:00,
2013-01-14 19:52:00,44.0,-4.0,30.28,NNE,12,7.0,22.0,13,0.00,,,0.00,0.000000,,2013-01-15 03:52:00,
2013-01-14 20:22:00,43.0,-3.0,30.31,NNW,348,6.0,14.0,14,0.00,,,0.00,0.000000,,2013-01-15 04:22:00,
2013-01-14 20:32:00,43.0,-3.0,30.31,NNW,348,6.0,14.0,14,0.00,,,0.00,0.000000,,2013-01-15 04:32:00,
2013-01-14 20:42:00,43.0,-3.0,30.31,NNW,348,6.0,14.0,14,0.00,,,0.00,0.000000,,2013-01-15 04:42:00,
2013-01-14 20:52:00,43.0,-3.0,30.31,NNW,348,6.0,14.0,14,0.00,,,0.00,0.000000,,2013-01-15 04:52:00,
2013-01-14 21:22:00,41.0,-3.0,30.30,NNE,13,5.0,12.0,15,0.00,,,0.00,0.000000,,2013-01-15 05:22:00,
2013-01-14 21:33:00,41.0,-3.0,30.30,NNE,13,5.0,12.0,15,0.00,,,0.00,0.000000,,2013-01-15 05:33:00,
2013-01-14 21:42:00,41.0,-3.0,30.30,NNE,13,5.0,12.0,15,0.00,,,0.00,0.000000,,2013-01-15 05:42:00,
2013-01-14 21:52:00,41.0,-3.0,30.30,NNE,13,5.0,12.0,15,0.00,,,0.00,0.000000,,2013-01-15 05:52:00,
2013-01-14 22:22:00,35.0,-2.0,30.30,NNE,31,4.0,15.0,20,0.00,,,0.00,0.000000,,2013-01-15 06:22:00,
2013-01-14 23:22:00,35.0,1.0,30.31,NNW,341,1.0,8.0,23,-99.99,,,0.00,0.000000,,2013-01-15 07:22:00,